This demonstration page uses our WeatherBlox Daily Observations layout. Learn more.

Left ArrowRight Arrow

Hourly Observations for October 4, 2022

Temp ( °F °C ) Dew Point ( °F °C ) Humidity (%) Winds ( mph kmh ) Pressure ( in mb ) Visibility ( mi km ) Precip ( " mm )
12:55 am 00:55 Clear 60 15.8 44 6.8 55 55 ESE 5 7 30.18 1022 10 16 0.00 0.00
1:55 am 01:55 Clear 60 15.3 45 7.1 58 58 ESE 5 7 30.17 1022 10 16 0.00 0.00
2:55 am 02:55 Clear 59 15.2 46 7.5 60 60 ESE 5 7 30.16 1021 10 16 0.00 0.00
3:55 am 03:55 Clear 58 14.7 46 8 64 64 ESE 5 7 30.15 1021 10 16 0.00 0.00
4:55 am 04:55 Clear 56 13.6 46 7.6 67 67 ESE 5 7 30.15 1021 10 16 0.00 0.00
5:55 am 05:55 Clear 56 13.3 46 7.5 68 68 E 3 6 30.15 1021 10 16 0.00 0.00
6:55 am 06:55 Clear 55 12.7 45 7.4 70 70 SE 3 6 30.15 1021 10 16 0.00 0.00
7:55 am 07:55 Partly Cloudy 53 11.8 45 7.1 73 73 SE 6 9 30.16 1021 10 16 0.00 0.00
8:55 am 08:55 Partly Cloudy 57 14.1 46 7.8 66 66 SE 8 13 30.16 1021 10 16 0.00 0.00
9:55 am 09:55 Partly Cloudy 62 16.8 47 8.2 57 57 SSE 9 15 30.15 1021 10 16 0.00 0.00
10:55 am 10:55 Sunny 68 19.8 47 8.5 48 48 SSW 8 13 30.14 1021 10 16 0.00 0.00
11:55 am 11:55 Partly Cloudy 73 22.7 47 8.4 40 40 SE 7 11 30.13 1020 10 16 0.00 0.00
12:55 pm 12:55 Mostly Sunny 78 25.8 47 8.3 33 33 SE 8 13 30.11 1020 10 16 0.00 0.00
1:55 pm 13:55 Partly Cloudy 81 27.1 46 7.5 29 29 SE 7 11 30.09 1019 10 16 0.00 0.00
2:55 pm 14:55 Mostly Cloudy 83 28.3 41 5.2 23 23 S 10 17 30.06 1018 10 16 0.00 0.00
3:55 pm 15:55 Cloudy 83 28.1 42 5.6 24 24 S 7 11 30.05 1018 10 16 0.00 0.00
4:55 pm 16:55 Cloudy 82 27.5 39 3.9 22 22 WSW 7 11 30.05 1018 10 16 0.00 0.00
5:55 pm 17:55 Cloudy 79 26.3 42 5.3 26 26 WSW 5 7 30.04 1017 10 16 0.00 0.00
6:55 pm 18:55 Cloudy 74 23.3 43 6.1 33 33 NW 10 17 30.05 1018 10 16 0.00 0.00
7:55 pm 19:55 Cloudy with Light Rain 72 22.1 44 6.7 37 37 NNW 12 19 30.08 1019 10 16 0.01 0.13
8:33 pm 20:33 Cloudy 70 21 46 8 43 43 Calm 30.08 1019 10 16 0.00 0.00
8:55 pm 20:55 Cloudy 69 20.4 47 8.4 46 46 S 5 7 30.09 1019 10 16 0.01 0.13
9:55 pm 21:55 Cloudy 68 20 47 8.3 47 47 Calm 30.09 1019 10 16 0.00 0.00
10:07 pm 22:07 Cloudy with Light Rain 68 20 48 9 49 49 Calm 30.10 1019 10 16 0.00 0.00
10:35 pm 22:35 Cloudy 64 18 52 11 64 64 E 6 9 30.08 1019 10 16 0.00 0.00
11:55 pm 23:55 Cloudy 64 17.5 53 11.7 69 69 SE 3 6 30.07 1018 10 16 0.00 0.00

Powered by AerisWeather